Starlink 30389

operational
NORAD ID: 57783 Int'l Des: 2023-134 Owner: SPXS Country: US Constellation: starlink
LEOCIRCULAR

Starlink 30389について

説明を読み込み中...

リアルタイム位置

3D地球を読み込み中...

次回通過

高度履歴

Altitude vs Time

uPlot chart will show altitude changes over time

軌道要素

1 57783U 23134N 25259.93172631 -.00001071 00000-0 -64243-4 0 9992
2 57783 43.0024 61.6482 0000643 262.5059 97.5710 15.02540741113333
Epoch: Sep 16, 2025 • Age: 29 hours

現在のステータス

高度 558.3 km
速度 7.58 km/s
衛星直下点 7.00°N, 172.65°E
打ち上げ日 Sep 4, 2023
運用期間 2 years
タイプ internet

技術仕様

分類 Payload
質量 730.00 kg
乾燥質量 700.00 kg
総質量 730.00 kg
長さ 0.30 m
直径 4.10 m
スパン 29.00 m
形状 Box + pan
製造者 SPXS
バスタイプ Starlink V2M
フェーズステータス In Orbit
所有者/国 SPXS/US

大規模コンステレーション

Loading constellations...